Location: Eenumerhoogte
(53.3420°N, 6.7843°E)
Time: 11:11:41
(UTC+00:00)

Cosmos 1238 Rocket - Pass Details

Date: 15 May 2026
Orbit: 351 x 697 km, 82.9° (Epoch: 5 June)

Event Time Altitude Azimuth Distance (km) Brightness Sun altitude
Exits shadow 23:14:46 33° 141° (SE) 974 3.6 -17.5°
Maximum altitude 23:16:09 46° 92° (E) 792 3.5 -17.6°
Drops below altitude 10° 23:20:24 10° 20° (NNE) 2,010 6.7 -17.6°
Sets 23:22:50 0° 15° (NNE) 2,973 8.0 -17.6°
